[[{"header":{"parameterUnit":"m.s-1","parameterCategory":1,"la1":30.2991,"la2":30.254,"lo1":-89.0895,"lo2":-89.0444,"dy":0.0017,"dx":0.0017,"nx":28,"ny":28,"refTime":"2023-04-25T21:00:00:Z","depth":0,"parameterNumber":2,"parameterNumberName":"U-component_of_WINDS"},"data":[0,0,0,0,0,0,0,0,0,0,0,0,0,0,0,0,0,0,0,0,0,0,0,0,0,0,0,0,0,0,0,0,0,0,0,0,0,0,0,0,0,0,0,0,0,0,0,0,0,0,0,0,0,0,0,0,0,0,-1.4673,-1.4673,0,-1.4624,-1.4624,-1.4623,-1.4551,-1.455,-1.4549,-1.4547,-1.45,-1.45,-1.4499,0,0,0,0,0,0,0,0,0,0,0,0,0,-1.4709,-1.4709,-1.4673,-1.4673,-1.4672,-1.4624,-1.4624,-1.4623,-1.4551,-1.455,-1.4548,-1.4547,-1.45,-1.45,-1.4499,0,0,0,0,0,0,0,0,0,0,0,0,0,-1.468,-1.4709,-1.4673,-1.4631,-1.4626,-1.4624,-1.4624,-1.4623,-1.4552,-1.455,-1.4548,-1.4546,-1.45,-1.45,-1.4499,-1.4536,0,0,-1.4499,-1.4499,0,0,0,0,0,0,0,0,-1.4682,-1.4679,-1.4638,-1.4634,-1.4629,-1.4592,-1.4619,-1.4594,-1.4552,-1.458,-1.4547,-1.4545,-1.4532,-1.4529,-1.4524,-1.4534,-1.4532,-1.4499,-1.4499,-1.4499,-1.4499,0,0,0,0,0,0,0,-1.4684,-1.4681,-1.4654,-1.4637,-1.4632,-1.4615,-1.4609,-1.4614,-1.4567,-1.4578,-1.4572,-1.4567,-1.4529,-1.4524,-1.4522,-1.4531,-1.4499,-1.4499,-1.4499,-1.4499,-1.4572,-1.4574,0,0,0,0,0,0,-1.4692,-1.4683,-1.4655,-1.4652,-1.4651,-1.4616,-1.4609,-1.4606,-1.4567,-1.4559,-1.4569,-1.4564,-1.4526,-1.4523,-1.452,-1.4563,-1.4499,-1.4499,-1.4499,-1.457,-1.4573,-1.4575,0,0,0,0,0,0,-1.4693,-1.469,-1.4657,-1.4666,-1.4661,-1.4617,-1.4614,-1.4606,-1.4601,-1.456,-1.4552,-1.4572,-1.4524,-1.4521,-1.4533,-1.456,-1.4499,-1.4498,-1.4568,-1.4571,-1.4574,-1.4647,0,0,0,0,0,0,-1.4694,-1.4691,-1.4703,-1.4667,-1.4661,-1.467,-1.4616,-1.4606,-1.46,-1.4593,-1.4561,-1.4554,-1.4522,-1.4534,-1.4533,-1.4559,-1.4498,-1.4565,-1.4569,-1.4573,-1.4642,-1.4652,-1.4661,0,0,0,0,0,-1.4696,-1.4726,-1.4704,-1.4701,-1.4675,-1.4672,-1.4668,-1.463,-1.4603,-1.4616,-1.459,-1.4555,-1.4557,-1.4536,-1.4534,-1.456,-1.4563,-1.4568,-1.4572,-1.4638,-1.465,-1.466,0,0,0,0,0,0,-1.4766,-1.472,-1.4696,-1.4715,-1.4698,-1.4659,-1.4674,-1.4644,-1.4635,-1.4629,-1.4583,-1.4576,-1.4595,-1.4579,-1.4556,-1.4595,-1.4555,-1.456,-1.4605,-1.4617,-1.4626,-1.463,-1.4498,0,0,0,0,0,-1.4784,-1.4784,-1.4744,-1.4765,-1.4758,-1.4718,-1.4715,-1.4687,-1.4668,-1.4661,-1.4636,-1.462,-1.4617,-1.4616,-1.4611,-1.4639,-1.4633,-1.4657,-1.4666,-1.4674,-1.4679,-1.4695,-1.4706,-1.459,-1.459,-1.459,0,0,-1.4821,-1.4796,-1.4798,-1.4779,-1.4762,-1.4765,-1.4712,-1.4717,-1.4719,-1.4661,-1.4672,-1.4654,-1.4633,-1.4654,-1.4663,-1.4641,-1.4709,-1.468,-1.4687,-1.4687,-1.4701,-1.4712,-1.4722,-1.4593,-1.4592,-1.4592,0,0,-1.4889,-1.4869,-1.4885,-1.487,-1.4846,-1.482,-1.4824,-1.4791,-1.4777,-1.4787,-1.4745,-1.4747,-1.4743,-1.473,-1.4723,-1.479,-1.4758,-1.479,-1.4839,-1.4856,-1.4865,-1.4873,-1.4898,-1.4908,-1.4795,-1.4795,-1.4795,0,-1.4938,-1.4939,-1.4898,-1.4905,-1.4899,-1.4847,-1.4864,-1.4852,-1.4828,-1.4826,-1.4802,-1.4797,-1.4779,-1.4798,-1.4815,-1.481,-1.4815,-1.4793,-1.4867,-1.4874,-1.4881,-1.4905,-1.4915,-1.4799,-1.4798,-1.4798,-1.4798,0,-1.5001,-1.5003,-1.5019,-1.4997,-1.4992,-1.5005,-1.4967,-1.4968,-1.4941,-1.4918,-1.4931,-1.4908,-1.4898,-1.4901,-1.4875,-1.4917,-1.4905,-1.4875,-1.4833,-1.4897,-1.4919,-1.4927,-1.4805,-1.4803,-1.4802,-1.4801,0,0,-1.511,-1.5067,-1.5074,-1.5065,-1.5036,-1.5037,-1.5048,-1.5039,-1.5041,-1.5027,-1.5037,-1.5035,-1.5008,-1.5001,-1.4973,-1.4988,-1.5045,-1.4956,-1.4955,-1.4974,-1.5092,-1.5116,-1.5127,-1.5024,-1.5025,-1.5027,-1.5095,0,-1.5174,-1.5189,-1.5154,-1.5179,-1.5181,-1.5134,-1.5144,-1.5129,-1.5109,-1.5109,-1.5087,-1.5087,-1.505,-1.5046,-1.5058,-1.5035,-1.5068,-1.503,-1.5034,-1.5034,-1.5041,-1.5138,-1.5161,-1.5227,-1.5103,-1.5104,-1.5105,0,-1.5248,-1.5239,-1.5264,-1.5236,-1.5236,-1.5245,-1.5235,-1.5236,-1.5218,-1.5203,-1.5196,-1.5164,-1.5175,-1.5136,-1.5152,-1.5127,-1.5127,-1.5117,-1.5118,-1.5117,-1.5074,-1.514,-1.5246,-1.5257,-1.5118,-1.5117,-1.5116,0,-1.5327,-1.5321,-1.5336,-1.5329,-1.5296,-1.5305,-1.5292,-1.5272,-1.527,-1.5261,-1.526,-1.5253,-1.525,-1.5247,-1.5215,-1.5189,-1.5236,-1.5193,-1.5225,-1.5226,-1.5236,-1.5236,-1.5345,-1.5236,-1.5236,-1.5235,-1.5235,0,-1.5402,-1.5419,-1.5371,-1.538,-1.54,-1.536,-1.5381,-1.5363,-1.5347,-1.5353,-1.5312,-1.532,-1.5277,-1.5281,-1.5256,-1.5275,-1.5273,-1.5262,-1.5256,-1.5266,-1.5268,-1.5265,-1.526,-1.5238,-1.5237,-1.5237,-1.5237,0,-1.5492,-1.546,-1.5474,-1.5443,-1.5435,-1.5451,-1.5425,-1.5433,-1.5411,-1.542,-1.542,-1.5386,-1.5388,-1.5356,-1.5352,-1.5336,-1.5366,-1.5351,-1.5372,-1.5367,-1.5401,-1.5399,-1.5512,-1.5526,-1.5408,-1.5409,-1.541,0,-1.5542,-1.5555,-1.5525,-1.5526,-1.5515,-1.5518,-1.5515,-1.5478,-1.5477,-1.546,-1.5471,-1.547,-1.5467,-1.5473,-1.5449,-1.5446,-1.5431,-1.5472,-1.5431,-1.5442,-1.5433,-1.5433,-1.5435,-1.548,-1.5482,-1.5483,-1.5484,0,-1.5634,-1.5618,-1.5615,-1.5609,-1.5607,-1.56,-1.559,-1.5594,-1.5553,-1.5555,-1.5557,-1.5554,-1.5551,-1.5551,-1.5544,-1.5533,-1.5503,-1.5497,-1.5504,-1.5515,-1.5527,-1.5523,-1.5396,-1.5494,-1.5493,-1.5492,-1.5492,-1.5491,-1.5706,-1.5716,-1.5697,-1.5697,-1.5686,-1.5678,-1.5685,-1.5665,-1.5665,-1.5659,-1.5637,-1.5644,-1.5629,-1.5617,-1.5608,-1.5614,-1.5594,-1.5604,-1.5607,-1.561,-1.5617,-1.5526,-1.5612,-1.5612,-1.5612,-1.5611,-1.5611,0,-1.5796,-1.5783,-1.5783,-1.5771,-1.5771,-1.5743,-1.5731,-1.5734,-1.5739,-1.5728,-1.5726,-1.573,-1.573,-1.5707,-1.5706,-1.5715,-1.5701,-1.5716,-1.5715,-1.5713,-1.5634,-1.5628,-1.5727,-1.5727,-1.5727,-1.5727,-1.5727,-1.5727,-1.5843,-1.5859,-1.5842,-1.5853,-1.584,-1.5845,-1.5841,-1.5835,-1.5826,-1.5831,-1.5832,-1.5817,-1.5801,-1.5799,-1.5799,-1.5792,-1.5794,-1.5814,-1.5803,-1.5729,-1.5718,-1.5707,-1.5702,-1.5814,-1.5815,-1.5881,-1.5882,-1.5882]},{"header":{"parameterUnit":"m.s-1","parameterCategory":1,"la1":30.2991,"la2":30.254,"lo1":-89.0895,"lo2":-89.0444,"dy":0.0017,"dx":0.0017,"nx":28,"ny":28,"refTime":"2023-04-25T21:00:00:Z","depth":0,"parameterNumber":3,"parameterNumberName":"V-component_of_WINDS"},"data":[0,0,0,0,0,0,0,0,0,0,0,0,0,0,0,0,0,0,0,0,0,0,0,0,0,0,0,0,0,0,0,0,0,0,0,0,0,0,0,0,0,0,0,0,0,0,0,0,0,0,0,0,0,0,0,0,0,0,1.4435,1.4435,0,1.4415,1.4415,1.4415,1.4523,1.4526,1.4529,1.4532,1.4501,1.4497,1.4494,0,0,0,0,0,0,0,0,0,0,0,0,0,1.4559,1.4556,1.4435,1.4435,1.4435,1.4415,1.4415,1.4415,1.4522,1.4526,1.453,1.4533,1.4502,1.4498,1.4493,0,0,0,0,0,0,0,0,0,0,0,0,0,1.4518,1.4555,1.4435,1.4486,1.4491,1.4415,1.4415,1.4414,1.4521,1.4526,1.4531,1.4535,1.4504,1.4498,1.4493,1.4364,0,0,1.4475,1.4473,0,0,0,0,0,0,0,0,1.452,1.4513,1.4479,1.4483,1.4488,1.4477,1.4447,1.4397,1.452,1.4509,1.4532,1.4537,1.4488,1.4484,1.447,1.4362,1.4361,1.4475,1.4472,1.4469,1.4468,0,0,0,0,0,0,0,1.4523,1.4515,1.4427,1.4478,1.4484,1.4508,1.4507,1.4438,1.4472,1.4511,1.4519,1.4515,1.4491,1.4475,1.447,1.4361,1.4475,1.447,1.4467,1.4464,1.4144,1.4139,0,0,0,0,0,0,1.452,1.4517,1.4428,1.4427,1.4516,1.4501,1.4501,1.4475,1.4474,1.4478,1.4511,1.452,1.4482,1.4476,1.4469,1.4315,1.4469,1.4464,1.4461,1.4149,1.4143,1.4138,0,0,0,0,0,0,1.4523,1.4511,1.4429,1.4474,1.4465,1.4494,1.4464,1.4472,1.4456,1.4474,1.448,1.4488,1.4486,1.4477,1.4389,1.4316,1.4461,1.4456,1.4155,1.4147,1.414,1.4008,0,0,0,0,0,0,1.4526,1.4512,1.4465,1.4472,1.4462,1.4351,1.446,1.4468,1.4447,1.4459,1.4454,1.4458,1.4489,1.4397,1.4384,1.4311,1.4452,1.4162,1.4152,1.4143,1.4019,1.3997,1.3978,0,0,0,0,0,1.453,1.4427,1.4462,1.445,1.4405,1.4347,1.4341,1.4381,1.4441,1.4392,1.4404,1.4458,1.4328,1.4387,1.4373,1.4297,1.4167,1.4155,1.4144,1.4028,1.4002,1.3979,0,0,0,0,0,0,1.4406,1.4428,1.4467,1.4364,1.4353,1.4365,1.4305,1.4352,1.4321,1.4332,1.4382,1.4379,1.4282,1.4282,1.4348,1.4172,1.4257,1.4242,1.4174,1.4149,1.4129,1.4128,1.4447,0,0,0,0,0,1.4368,1.4322,1.4343,1.4249,1.4242,1.4275,1.4251,1.4284,1.4272,1.4267,1.4273,1.4257,1.4213,1.4182,1.4142,1.4022,1.402,1.3963,1.3943,1.3926,1.391,1.3843,1.3817,1.41,1.41,1.41,0,0,1.4285,1.4292,1.4259,1.4225,1.422,1.4168,1.4269,1.421,1.4171,1.4257,1.4174,1.4178,1.4164,1.4059,1.4013,1.4056,1.3833,1.3911,1.3897,1.3891,1.3829,1.3802,1.3778,1.4092,1.4093,1.4094,0,0,1.4109,1.4112,1.4033,1.4027,1.402,1.4043,1.4024,1.4029,1.4035,1.3955,1.4018,1.3971,1.3894,1.3881,1.3864,1.3685,1.3731,1.3671,1.356,1.3495,1.3473,1.3453,1.3384,1.336,1.3657,1.3656,1.3656,0,1.4006,1.3933,1.3986,1.3922,1.3903,1.3984,1.3903,1.3894,1.3872,1.3856,1.3906,1.3811,1.3808,1.3699,1.3655,1.3641,1.3617,1.3668,1.3473,1.3453,1.3435,1.337,1.3345,1.3649,1.3649,1.365,1.3651,0,1.3806,1.3754,1.3692,1.3672,1.3647,1.3575,1.3613,1.3581,1.3617,1.3634,1.3548,1.3548,1.3509,1.3487,1.352,1.3382,1.3408,1.3465,1.355,1.34,1.3339,1.3315,1.3637,1.364,1.3643,1.3644,0,0,1.3545,1.3558,1.3534,1.3525,1.3525,1.3484,1.3415,1.338,1.3349,1.3334,1.3273,1.3208,1.3261,1.3241,1.3275,1.3218,1.3071,1.3281,1.3281,1.3237,1.2914,1.2867,1.2837,1.3105,1.3101,1.3097,1.2913,0,1.3368,1.3253,1.3299,1.3178,1.3129,1.3207,1.3146,1.3137,1.3152,1.311,1.3126,1.3076,1.3152,1.314,1.3089,1.3099,1.3005,1.3114,1.3044,1.3041,1.3039,1.2807,1.2757,1.2583,1.289,1.2887,1.2884,0,1.3146,1.3123,1.2998,1.3006,1.2987,1.2932,1.2902,1.2864,1.2855,1.2869,1.2849,1.2895,1.2824,1.2915,1.2816,1.2889,1.2864,1.2866,1.286,1.285,1.2948,1.2784,1.253,1.2501,1.2848,1.2851,1.2853,0,1.2961,1.29,1.2817,1.2808,1.2816,1.2775,1.2776,1.2773,1.2748,1.2723,1.2707,1.2673,1.2652,1.2623,1.2657,1.2721,1.2551,1.2646,1.2557,1.2555,1.2512,1.2513,1.2243,1.2506,1.2506,1.2507,1.2507,0,1.2755,1.2674,1.2734,1.2682,1.2593,1.2647,1.2556,1.2566,1.2562,1.2511,1.2577,1.2527,1.2578,1.2532,1.2559,1.247,1.2462,1.2468,1.2474,1.2458,1.2457,1.2438,1.2448,1.25,1.2501,1.2503,1.2504,0,1.2531,1.2569,1.2483,1.2499,1.2501,1.2434,1.2447,1.2398,1.2419,1.2353,1.2341,1.2372,1.2321,1.2355,1.2303,1.2321,1.2203,1.223,1.2206,1.2211,1.2118,1.2124,1.1822,1.1783,1.2076,1.2073,1.2071,0,1.2395,1.2335,1.2346,1.2318,1.2315,1.2269,1.2246,1.2297,1.2269,1.2256,1.2207,1.2163,1.213,1.2044,1.206,1.202,1.2042,1.194,1.2036,1.2021,1.2034,1.2035,1.2027,1.1917,1.1914,1.1911,1.1909,0,1.2146,1.2168,1.2133,1.2104,1.2075,1.2055,1.2039,1.2012,1.2063,1.2028,1.1979,1.1954,1.1903,1.1856,1.1823,1.1821,1.187,1.188,1.1856,1.1835,1.1822,1.1822,1.2146,1.1884,1.1887,1.1889,1.189,1.1891,1.1957,1.1907,1.1907,1.1865,1.186,1.1844,1.1798,1.1815,1.1776,1.174,1.1773,1.1712,1.1705,1.1667,1.1658,1.1609,1.1651,1.1618,1.1608,1.1597,1.1582,1.1836,1.1604,1.1605,1.1606,1.1606,1.1607,0,1.1707,1.1712,1.1674,1.1651,1.1618,1.1675,1.1661,1.1628,1.1575,1.1566,1.1533,1.1475,1.1431,1.1445,1.1405,1.1362,1.1384,1.1349,1.135,1.1347,1.155,1.1572,1.1332,1.1332,1.1332,1.1333,1.1333,1.1333,1.1573,1.1489,1.1511,1.1425,1.143,1.1373,1.136,1.1344,1.1337,1.127,1.1235,1.1247,1.1246,1.1206,1.1167,1.1173,1.1152,1.1107,1.1119,1.1307,1.1334,1.1359,1.138,1.1104,1.1103,1.0921,1.0919,1.0918]}]]